Home   Weather   Kirchdorf an der Krems   Past weeks

Flag for Austria Past Weather in Kirchdorf an der Krems, Upper Austria, Austria — Yesterday and Last 2 Weeks

Now
69 °F

Mild.


Feels Like: 69 °F
Forecast: 54 / 60 °F
Wind: 2 mph from East

Location: Kremsmuenster

Current Time: Oct 1, 2016 at 7:27:35 PM

Latest Report: Oct 1, 2016 at 6:00 PM


Visibility: N/A

Pressure: 29.82 "Hg

Humidity: 62%

Dew Point: 56 °F

Location of Kirchdorf an der KremsLocation

Past Weather in Kirchdorf an der Krems — Graph

°F

Kirchdorf an der Krems Temperature Yesterday

Maximum temperature yesterday: 75 °F (at 3:00 PM)
Minimum temperature yesterday: 52 °F (at 6:00 AM)
Average temperature yesterday: 64 °F

High & Low Weather Summary for the Past Weeks

 TemperatureHumidityPressure
High77 °F (Sep 29, 4:00 PM)97% (Sep 21, 6:00 AM)30.43 "Hg (Sep 21, 6:00 AM)
Low44 °F (Sep 23, 6:00 AM)39% (Sep 29, 4:00 PM)29.80 "Hg (Sep 17, 2:00 AM)
Average58 °F77%30.12 "Hg
* Reported Sep 16 6:00 PM — Oct 1 6:00 PM, Kirchdorf an der Krems, Weather by CustomWeather, © 2016

Note: Actual official high and low records may vary slightly from our data, if they occured in-between our weather recording intervals... More about our weather records

Advertising

Kirchdorf an der Krems Weather History for the Previous 24 Hours

Scroll right to see more
 ConditionsComfort  
Time TempWeatherWind HumidityBarometerVisibility
6:00 PM
Sat, Oct 1
69 °FMild.2 mph62%29.82 "HgN/A
5:00 PM71 °FOvercast.1 mph62%29.83 "Hg6 mi
4:00 PM71 °FMild.1 mph57%29.84 "HgN/A
3:00 PM72 °FMild.1 mph55%29.85 "HgN/A
1:00 PM67 °FMild.1 mph63%29.88 "HgN/A
12:00 PM64 °FMild.2 mph69%29.90 "HgN/A
11:00 AM60 °FPartly sunny.1 mph76%29.92 "Hg12 mi
10:00 AM57 °FCool.No wind77%29.93 "HgN/A
9:00 AM53 °FCool.No wind86%29.94 "HgN/A
8:00 AM50 °FScattered clouds.No wind90%29.95 "Hg19 mi
7:00 AM50 °FPassing clouds.1 mph91%29.95 "Hg6 mi
6:00 AM54 °FCool.3 mph89%29.94 "HgN/A
5:00 AM52 °FCool.1 mph90%29.96 "HgN/A
4:00 AM53 °FCool.1 mph88%29.97 "HgN/A
3:00 AM57 °FCool.2 mph84%29.97 "HgN/A
2:00 AM58 °FCool.3 mph82%29.98 "HgN/A
1:00 AM57 °FCool.1 mph87%30.00 "HgN/A
12:00 AM61 °FCool.5 mph78%29.99 "HgN/A
11:00 PM
Fri, Sep 30
63 °FMild.6 mph76%29.98 "HgN/A
10:00 PM64 °FMild.7 mph72%29.99 "HgN/A
9:00 PM65 °FMild.5 mph70%30.00 "HgN/A
8:00 PM65 °FPassing clouds.3 mph68%29.98 "Hg28 mi
7:00 PM67 °FMild.2 mph62%29.97 "HgN/A
Weather by CustomWeather, © 2016

See weather overviewHow to use our weather pages